{"data":{"norad_id":61625,"intl_designator":"2024-191E","name":"STARLINK-32365","alt_names":[],"object_type":"PAYLOAD","status":"ACTIVE","operator":null,"country":"US","launch_date":"2024-10-23","launch_site_code":"AFETR","launch_vehicle":null,"mission":null,"orbit_class":"UNKNOWN","rcs_meters":null,"size_class":null,"mass_kg":null,"dimensions":null,"purposes":["comms"],"wikipedia_slug":null,"has_3d_model":false,"image_url":null,"decayed_at":null,"tle_current":{"epoch":"2026-09-21T08:32:43.770624Z","epoch_age_seconds":118111,"freshness":"FRESH","line1":"1 61625U 24191E   26264.35606216  .00000343  00000+0  22006-4 0  9999","line2":"2 61625  43.0064 129.2563 0002003 260.4492  99.6133 15.27573831107460","mean_motion":15.27573831,"eccentricity":0.0002003,"inclination_deg":43.0064,"raan_deg":129.2563,"arg_perigee_deg":260.4492,"mean_anomaly_deg":99.6133,"bstar":2.2006e-5,"rev_number":10746,"period_min":94.267129403319,"perigee_km":481.69326903207,"apogee_km":484.44186758214,"semimajor_km":6861.2045683071,"source":"CELESTRAK","updated_at":"2026-09-22T09:00:49.395386Z"}}}